Theta_e
301 301 301 301 302 302 302 302 302 302 303 303 303 305 308 308 307 307 307 305 306 307 307 308 309 309 310 316 318 321 328 330 326 328 317 310 310 305 305 305 304 304 305 304 303
300 300 300 300 300 300 301 301 301 301 302 302 302 302 307 309 306 307 306 307 307 308 308 309 311 309 312 315 318 322 329 323 316 315 315 312 315 306 307 303 301 302 302 306 302
299 299 299 299 299 299 300 300 300 301 301 301 301 301 305 308 307 304 303 303 305 305 308 309 309 310 311 312 314 317 321 314 311 311 310 310 310 309 314 313 311 306 304 308 305
298 298 298 299 299 299 299 300 300 300 301 300 300 300 305 307 310 302 300 301 301 303 306 308 310 311 312 312 310 314 308 309 306 306 311 310 308 308 305 302 302 304 310 310 313
298 298 298 298 299 299 299 300 300 300 300 300 300 301 305 306 304 301 300 300 301 302 304 307 310 312 313 309 309 310 307 305 304 305 305 306 308 307 303 301 300 301 301 299 297
298 298 298 298 299 299 299 299 300 300 300 300 299 302 305 306 302 300 300 300 301 302 304 307 309 310 308 307 308 306 306 304 304 304 303 305 306 304 303 301 300 299 298 298 297
297 297 298 298 298 298 298 299 299 299 299 299 300 303 303 302 299 298 299 299 300 301 304 305 307 308 308 305 304 305 305 304 302 302 302 301 305 304 302 301 299 298 299 298 299
297 297 297 298 298 298 298 298 298 299 299 300 302 302 301 299 298 298 298 299 299 300 302 305 306 306 306 304 304 306 307 308 301 301 301 302 307 302 301 301 301 300 299 297 296
296 296 297 298 298 298 298 299 299 300 300 301 301 301 298 296 297 297 298 299 300 301 303 304 304 303 304 306 306 306 306 308 302 300 300 302 305 303 301 300 301 300 298 297 295
296 296 297 298 297 298 298 299 299 300 300 300 300 298 295 296 296 297 298 299 300 302 303 304 304 304 305 305 304 307 305 304 304 299 300 300 300 301 301 300 300 301 300 298 297
296 296 296 297 297 297 297 297 297 298 297 296 296 296 295 295 296 296 297 299 300 302 303 302 303 304 301 300 301 303 303 303 301 297 297 299 300 300 302 300 300 301 301 300 298
296 295 296 297 297 296 296 298 299 298 294 293 294 294 295 295 296 296 297 298 300 301 300 301 302 296 298 299 301 302 303 302 298 297 296 298 296 297 300 301 300 300 301 301 300
296 295 295 297 297 296 296 296 297 296 298 294 293 294 294 295 295 295 296 297 299 300 300 300 295 294 296 298 300 298 299 299 298 297 297 296 298 302 301 301 301 301 300 301 300
296 295 294 296 296 297 296 297 296 296 309 299 295 294 293 294 294 293 294 296 296 298 295 294 293 295 296 296 295 299 295 296 297 297 298 298 295 302 300 299 299 300 300 300 300
295 294 294 295 298 296 297 297 296 297 304 297 293 292 292 295 294 293 293 296 296 294 295 293 293 295 297 293 292 295 294 296 297 297 297 298 295 301 302 299 298 299 299 299 299
295 294 294 295 297 297 297 296 296 307 301 294 293 294 294 294 293 292 294 294 295 294 291 291 291 291 292 292 293 294 296 297 297 297 298 297 296 298 301 301 301 300 299 298 298
295 294 294 296 297 296 296 296 304 305 296 296 294 293 295 294 293 294 294 293 296 297 296 292 291 290 291 293 294 295 297 303 302 300 304 296 295 296 301 298 298 297 297 297 297
294 294 294 295 295 296 295 303 302 304 299 293 293 294 295 293 293 293 294 295 294 296 297 296 296 291 290 292 295 295 297 303 300 304 300 296 296 299 299 298 298 297 296 296 296
293 293 293 294 295 295 299 302 304 306 298 294 294 296 296 293 293 294 294 297 297 293 302 298 293 289 289 290 292 295 294 295 294 291 294 297 299 299 297 298 298 297 297 296 295
293 293 293 293 295 295 300 303 301 295 295 295 300 298 298 293 294 293 294 297 295 293 292 297 292 290 289 290 291 292 292 294 295 296 297 301 299 297 296 297 296 297 297 296 295
293 295 295 293 293 296 300 301 295 293 293 295 297 294 301 294 295 295 299 294 293 291 293 294 297 291 289 289 292 290 292 293 295 296 299 298 298 299 297 296 295 296 296 295 295
294 299 293 293 299 297 301 296 293 293 291 293 294 297 298 295 296 298 299 295 293 291 293 294 295 292 293 288 288 290 294 294 296 295 294 296 295 298 297 297 297 295 295 294 294
294 296 293 293 299 298 292 292 292 292 292 292 293 294 294 295 296 296 294 289 291 292 291 290 296 292 295 291 288 287 291 294 293 293 293 294 296 295 295 295 296 296 294 294 294
296 297 292 293 295 300 295 295 293 292 293 293 292 292 293 293 292 291 292 289 289 291 291 293 293 296 300 300 290 287 288 292 289 290 294 297 296 295 294 294 296 295 294 294 293
292 299 295 294 295 295 297 296 295 292 289 291 291 292 293 290 291 291 292 289 289 290 289 291 289 287 289 292 292 289 286 289 289 292 292 296 296 295 295 295 296 295 293 293 292
294 294 293 297 295 295 296 296 295 293 290 291 291 293 294 290 293 292 290 290 291 289 287 284 289 283 287 291 291 288 288 288 291 292 292 293 294 295 295 294 294 293 292 292 291
293 294 293 295 295 296 296 296 295 293 292 293 291 293 293 293 291 292 292 293 290 289 289 285 284 286 290 290 290 289 288 289 289 286 291 291 293 293 292 292 292 291 290 290 290
Wind_Speed
12 11 13 13 12 13 13 13 13 12 11 11 8 7 4 3 3 3 5 5 5 6 5 3 4 3 0 2 2 2 3 6 5 4 5 12 4 2 6 9 5 5 9 9 6
11 11 12 12 12 13 13 13 13 13 12 11 9 7 5 3 1 4 6 6 5 5 4 1 1 1 3 2 1 3 3 4 7 6 5 8 1 10 5 5 2 4 8 7 7
9 11 11 11 11 12 12 12 12 12 12 11 10 8 5 4 1 7 6 5 4 4 3 1 2 1 3 2 2 4 3 3 8 7 8 5 7 4 2 4 7 10 13 10 8
7 9 9 9 10 10 11 11 11 11 12 11 10 9 8 7 3 2 3 3 3 3 3 2 1 3 3 4 1 2 6 6 4 5 3 4 4 3 3 3 2 6 8 11 10
6 7 7 8 9 10 10 9 10 10 10 11 11 12 11 5 5 5 2 2 0 3 2 2 3 3 2 5 2 3 5 6 5 7 7 2 2 2 5 6 5 6 8 9 10
5 6 6 7 7 8 8 7 6 6 8 10 13 13 10 7 7 7 5 4 2 5 2 3 2 2 7 4 4 5 8 7 5 6 5 4 3 1 9 9 8 8 11 12 12
6 6 6 6 4 3 3 4 3 3 7 12 13 13 4 8 4 3 3 3 4 5 3 4 8 2 7 6 6 9 5 5 5 4 4 5 4 3 9 8 8 9 9 10 10
6 5 6 5 2 0 1 1 2 4 10 12 12 8 4 6 4 3 3 2 3 5 5 6 9 7 3 10 5 3 2 4 3 4 2 3 3 6 8 9 12 11 11 12 12
6 6 5 4 2 2 4 6 8 9 10 11 9 5 2 2 3 2 4 5 6 6 7 8 7 4 5 3 3 3 3 5 3 3 2 2 4 6 8 11 12 14 15 13 11
6 6 5 4 4 4 7 8 9 8 9 8 5 3 2 2 2 3 6 7 6 9 6 3 2 3 2 4 3 3 3 2 0 1 2 6 11 8 17 17 16 15 16 16 14
6 6 5 5 6 7 9 9 5 2 4 3 3 2 3 5 4 3 7 7 7 4 3 2 3 2 7 6 3 3 2 1 5 2 2 6 10 9 12 19 16 15 15 17 16
8 7 6 7 8 9 10 5 3 3 5 3 4 4 6 6 3 3 8 2 3 3 1 2 1 5 4 4 1 0 1 0 4 2 1 6 13 11 14 14 24 20 17 16 16
8 7 7 8 8 9 10 7 2 7 1 2 5 4 5 5 2 2 5 3 1 4 2 1 4 3 2 2 3 4 3 3 2 4 4 6 6 3 1 0 5 18 13 14 19
8 8 7 8 6 8 9 8 7 3 1 3 3 2 3 6 1 2 6 4 2 4 6 6 2 1 2 5 4 4 3 1 2 4 2 2 4 5 4 5 4 5 11 13 16
8 8 8 12 4 10 5 9 8 2 2 4 2 2 4 2 6 2 5 4 5 4 1 2 1 1 2 2 3 3 1 3 2 3 3 3 4 4 1 5 4 5 5 9 14
9 9 9 13 7 7 7 11 8 3 7 2 3 3 4 2 2 4 2 5 7 5 10 4 2 4 3 2 3 4 2 2 1 1 2 3 3 3 3 1 1 4 5 3 6
10 10 11 12 8 9 14 12 3 3 3 3 3 4 2 4 3 3 5 4 4 6 3 3 2 2 1 3 0 2 1 1 3 3 4 2 1 8 1 4 3 6 6 5 2
11 11 12 12 9 15 18 3 3 2 4 1 4 4 2 5 2 3 3 4 4 2 4 6 3 3 1 3 1 4 2 3 6 3 1 1 5 5 4 3 3 2 2 4 3
11 11 12 12 13 19 9 2 6 3 5 9 3 4 3 2 2 4 6 4 3 7 5 4 2 3 5 3 3 3 2 1 6 2 3 4 5 5 5 4 4 5 6 4 4
11 9 9 14 17 20 2 5 4 1 5 4 4 4 6 5 5 5 8 2 5 1 2 3 5 2 2 2 1 2 3 3 2 2 4 5 4 5 7 8 7 7 7 5 5
12 6 6 15 20 8 4 5 3 5 5 6 4 3 2 7 6 4 6 1 2 4 2 2 4 1 2 6 5 2 2 0 2 3 4 2 5 4 9 9 9 9 5 5 5
10 2 11 23 6 4 3 5 4 5 4 3 1 2 6 6 5 3 8 3 6 10 7 3 5 3 3 3 4 2 2 5 4 5 1 1 6 4 8 6 13 10 5 3 5
9 5 15 27 4 3 1 1 3 4 5 6 5 2 1 6 3 4 4 1 5 3 5 5 2 3 2 2 3 3 5 3 4 1 6 5 5 3 5 6 10 10 2 1 8
9 3 5 16 7 3 5 5 5 6 2 4 4 4 3 2 3 4 3 2 5 1 2 3 2 5 6 4 5 5 6 9 6 3 3 9 6 4 7 7 8 9 3 7 6
11 6 10 6 9 7 6 7 7 7 4 8 1 5 7 4 2 5 4 4 2 5 2 3 5 2 2 3 2 5 5 11 9 12 8 8 18 11 8 2 4 6 2 5 6
10 7 7 2 4 17 9 9 10 5 9 6 5 12 8 7 7 9 9 6 5 5 4 2 3 2 3 5 6 5 6 11 19 10 16 20 21 7 5 1 6 5 5 7 5
33 15 8 8 5 7 10 12 14 12 11 7 14 6 11 7 13 13 9 9 12 9 5 6 6 3 4 1 2 9 16 20 9 7 14 12 14 7 5 8 5 3 4 3 3
Wind_Direction
268 265 263 267 271 269 268 270 270 262 255 261 253 256 251 261 264 249 266 277 280 278 289 281 16 347 242 225 235 271 261 256 331 20 87 134 120 118 112 118 153 136 152 172 202
273 269 268 268 269 270 271 269 264 262 253 242 242 239 229 207 158 276 291 282 282 275 264 126 160 88 211 209 207 252 243 49 12 19 53 147 311 146 137 134 134 137 143 155 164
272 276 274 275 271 269 271 269 263 257 249 238 230 219 205 186 161 260 299 287 270 261 235 154 131 42 232 290 46 43 357 351 49 16 7 67 99 117 212 185 202 212 184 174 183
273 275 279 281 277 274 273 270 264 255 241 230 216 203 191 185 239 292 311 310 251 216 158 61 279 224 221 168 47 199 62 39 30 13 40 84 83 124 354 91 208 235 206 195 200
274 277 276 276 281 282 278 271 269 246 231 215 199 188 175 206 243 271 281 325 193 150 111 172 223 251 192 96 129 69 97 67 71 58 56 76 87 310 175 161 177 161 171 166 180
275 275 277 281 283 283 285 282 266 238 213 196 185 179 180 244 257 270 266 253 191 130 134 119 109 83 92 68 12 101 103 101 67 66 55 341 157 285 152 187 187 181 186 196 200
265 274 282 280 279 292 289 290 269 200 176 168 170 167 207 217 255 246 234 223 201 168 153 168 142 124 128 114 114 141 117 143 64 22 56 341 233 242 172 176 186 193 209 215 226
264 267 268 269 263 299 56 65 107 136 144 151 152 152 211 224 244 241 201 134 153 177 168 144 126 120 79 124 126 207 280 190 48 332 43 347 234 122 176 185 201 209 210 215 225
251 259 253 247 200 127 96 100 110 120 132 143 153 153 258 190 213 222 187 156 120 121 135 134 125 107 133 210 141 208 269 191 132 29 343 220 285 157 194 207 222 216 215 219 221
246 253 242 216 178 147 121 109 112 125 134 145 169 204 183 234 135 140 141 141 116 119 98 98 137 151 228 208 179 174 209 101 314 37 224 247 257 245 211 212 223 227 221 218 219
241 242 232 208 183 163 143 124 109 108 168 145 191 124 155 142 119 112 134 125 111 181 172 209 191 168 75 41 15 358 33 290 110 109 306 248 269 256 212 209 223 229 234 219 222
236 229 222 204 191 181 174 147 228 160 105 112 130 150 154 135 114 111 143 80 193 134 75 144 96 56 32 12 325 131 258 339 87 99 240 314 287 272 243 215 212 212 224 229 217
232 225 223 207 200 200 203 213 261 165 19 181 171 164 167 161 145 179 159 121 13 131 207 130 60 46 305 122 111 40 357 46 33 299 229 293 281 191 44 327 236 203 213 228 220
229 222 214 202 208 213 213 212 180 193 37 175 196 184 160 147 70 137 145 121 56 111 71 71 4 269 217 82 354 148 13 79 321 351 327 196 283 338 122 147 125 163 211 225 228
229 219 210 195 192 189 194 182 175 156 325 63 133 192 148 168 141 87 125 70 117 92 157 166 146 155 130 53 327 135 301 39 345 305 37 161 94 240 138 80 76 101 195 232 232
223 218 206 202 213 196 178 164 149 53 251 134 122 148 153 163 95 123 88 105 120 90 46 89 53 28 76 127 359 156 167 171 277 319 29 88 123 271 134 102 338 37 21 343 254
220 213 208 204 209 185 163 151 63 187 15 214 182 175 230 143 129 204 160 155 155 109 156 171 66 95 318 125 31 304 169 67 9 10 227 70 88 243 57 56 356 335 347 317 330
214 210 206 205 201 173 161 78 194 231 185 146 126 111 204 163 103 152 157 184 241 232 126 153 260 173 336 18 165 205 70 153 190 191 210 303 229 251 126 81 38 29 33 17 32
208 204 207 203 188 171 164 177 213 200 152 151 148 150 193 180 135 171 199 203 164 183 147 131 94 98 27 338 18 177 215 42 98 29 50 222 256 34 131 183 141 85 94 73 87
188 187 214 197 181 173 106 252 216 115 134 163 188 187 165 190 157 188 172 202 165 51 40 167 94 348 101 273 121 65 315 99 354 137 270 269 242 214 208 172 148 107 88 72 61
179 181 208 181 170 174 200 231 202 191 172 180 195 135 186 168 169 193 195 323 97 136 32 111 102 125 23 202 175 163 208 4 85 151 190 255 263 248 158 172 153 129 110 110 101
178 201 179 166 154 208 203 192 168 164 183 207 297 128 175 152 163 213 195 95 150 158 161 202 108 137 191 56 25 328 248 178 138 229 206 153 269 215 167 136 138 155 145 152 350
179 173 175 175 189 208 103 209 219 155 187 174 196 157 28 167 149 156 113 57 156 157 161 198 187 87 346 8 13 214 208 252 87 99 198 148 258 196 126 141 178 182 188 177 320
178 155 161 205 237 204 152 211 196 201 169 146 139 91 116 137 36 159 124 151 180 149 125 131 93 173 186 175 122 185 202 192 149 136 211 223 256 234 197 194 190 197 183 296 309
206 221 189 188 221 202 179 165 155 181 219 181 191 208 166 130 83 181 118 123 184 177 109 129 183 120 259 140 151 192 177 186 192 212 186 226 232 226 256 108 249 280 307 323 329
196 190 189 195 176 188 199 202 168 145 153 222 209 199 185 158 188 186 140 180 184 164 149 2 151 115 311 190 205 237 209 199 214 232 258 258 270 237 283 111 128 75 341 333 332
214 216 200 173 168 174 212 190 198 143 209 186 199 134 188 181 97 90 88 134 142 146 157 147 135 113 253 319 213 287 195 199 198 204 212 222 241 157 178 130 100 340 330 328 319